Hourly Data Report for October 05, 2013

All times are specified in Local Standard Time (LST). Add 1 hour to adjust for Daylight Saving Time where and when it is observed.

ST LEONARD CS
NEW BRUNSWICK

47°09'28.050" N
67°49'55.014" W
245.00 m
810I001
71019
WIY

Download Data

Hourly Data (October 2013)
Hourly Data Report for October 5, 2013
Temp Definition
°C
Dew Point Temp Definition
°C
Rel Hum Definition
%
Wind Dir Definition
10's deg

Wind Spd Definition
km/h
Visibility Definition
km
Stn Press Definition
kPa
Hmdx Definition


Wind Chill Definition


Weather Definition


TIME
00:00 4.4 2.0 84 34 7   98.90     LegendNANA
01:00 4.1 1.9 86 33 6   98.96     LegendNANA
02:00 3.0 1.8 92   0   98.95     LegendNANA
03:00 1.8 1.3 96 29 4   98.94     LegendNANA
04:00 0.5 -0.6 92   0   98.95     LegendNANA
05:00 -0.1 -0.7 96 30 4   98.99   -1 LegendNANA
06:00 0.1 -0.5 96   0   99.01     LegendNANA
07:00 -0.7 -1.1 97   0   99.05     LegendNANA
08:00 4.0 2.4 89 30 2   99.04     LegendNANA
09:00 5.3 3.4 88 31 9   99.06     LegendNANA
10:00 6.6 4.0 83 30 13   99.08     LegendNANA
11:00 8.0 3.5 73 30 11   99.03     LegendNANA
12:00 10.3 2.6 59 28 19   99.01     LegendNANA
13:00 11.6 1.8 51 29 15   98.91     LegendNANA
14:00 12.8 2.1 48 31 19   98.85     LegendNANA
15:00 13.2 0.7 42 29 17   98.82     LegendNANA
16:00 12.6 -0.3 41 33 24   98.86     LegendNANA
17:00 11.3 -2.2 39 31 28   98.88     LegendNANA
18:00 9.3 -0.9 49 31 17   98.95     LegendNANA
19:00 7.1 -0.5 58 31 15   99.02     LegendNANA
20:00 5.8 -0.4 64 33 11   99.06     LegendNANA
21:00 4.9 -0.2 70 30 13   99.13     LegendNANA
22:00 3.7 -0.4 75 29 9   99.19     LegendNANA
23:00 3.1 -0.5 77 30 7   99.23     LegendNANA

Notes on Data Quality.

Legend

  • E = Estimated
  • M = Missing
  • NA = Not Available
  • ‡ = Partner data that is not subject to review by the National Climate Archives
Date modified: